�������l�o���
Date,Time,MP-1(��Sv/h),MP-2(��Sv/h),MP-3(��Sv/h),MP-4(��Sv/h),MP-5(��Sv/h),MP-6(��Sv/h),MP-7(��Sv/h),MP-8(��Sv/h),����,����(m/s),���J
2020/02/10,00:00,0.705,1.024,0.661,1.270,0.885,0.402,0.706,0.671,���쐼,2.4,��
2020/02/10,00:10,0.706,1.023,0.661,1.270,0.885,0.400,0.705,0.671,�쐼,3.0,��
2020/02/10,00:20,0.705,1.025,0.661,1.269,0.886,0.402,0.706,0.672,�쐼,2.3,��
2020/02/10,00:30,0.705,1.023,0.661,1.266,0.884,0.400,0.706,0.671,�쐼,3.3,��
2020/02/10,00:40,0.703,1.020,0.660,1.267,0.883,0.401,0.705,0.669,���쐼,2.6,��
2020/02/10,00:50,0.701,1.023,0.661,1.270,0.883,0.400,0.705,0.671,�쐼,2.8,��
2020/02/10,01:00,0.702,1.023,0.662,1.270,0.884,0.401,0.706,0.672,�쐼,2.8,��
2020/02/10,01:10,0.703,1.020,0.660,1.268,0.884,0.402,0.705,0.672,�쐼,2.5,��
2020/02/10,01:20,0.704,1.019,0.659,1.268,0.882,0.402,0.706,0.672,���쐼,1.9,��
2020/02/10,01:30,0.703,1.020,0.659,1.269,0.883,0.402,0.705,0.673,���쐼,2.0,��
2020/02/10,01:40,0.702,1.022,0.660,1.267,0.884,0.404,0.705,0.672,�쐼,1.7,��
2020/02/10,01:50,0.706,1.022,0.660,1.268,0.886,0.402,0.707,0.669,�쐼,1.5,��
2020/02/10,02:00,0.705,1.022,0.660,1.268,0.884,0.401,0.705,0.670,�쐼,1.4,��
2020/02/10,02:10,0.704,1.023,0.661,1.269,0.885,0.401,0.706,0.671,��쐼,0.9,��
2020/02/10,02:20,0.704,1.023,0.661,1.267,0.886,0.402,0.708,0.670,�쐼,1.0,��
2020/02/10,02:30,0.704,1.023,0.661,1.266,0.885,0.401,0.706,0.670,-,CALM,��
2020/02/10,02:40,0.704,1.022,0.662,1.268,0.884,0.403,0.708,0.672,�k��,0.5,��
2020/02/10,02:50,0.704,1.025,0.660,1.269,0.883,0.403,0.705,0.671,�k��,1.1,��
2020/02/10,03:00,0.704,1.023,0.657,1.267,0.887,0.402,0.705,0.669,���k��,1.1,��
2020/02/10,03:10,0.705,1.022,0.660,1.269,0.885,0.402,0.705,0.672,��,1.5,��
2020/02/10,03:20,0.705,1.022,0.660,1.269,0.884,0.402,0.704,0.670,���쐼,1.3,��
2020/02/10,03:30,0.702,1.021,0.661,1.268,0.884,0.402,0.706,0.670,���쐼,1.0,��
2020/02/10,03:40,0.704,1.021,0.661,1.269,0.883,0.402,0.706,0.670,���쐼,1.4,��
2020/02/10,03:50,0.703,1.022,0.658,1.264,0.882,0.403,0.706,0.670,���쐼,1.1,��
2020/02/10,04:00,0.704,1.022,0.660,1.268,0.884,0.403,0.704,0.671,���쐼,0.6,��
2020/02/10,04:10,0.704,1.020,0.661,1.267,0.883,0.402,0.706,0.671,-,CALM,��
2020/02/10,04:20,0.705,1.020,0.660,1.266,0.882,0.403,0.705,0.673,���k��,0.7,��
2020/02/10,04:30,0.704,1.021,0.659,1.268,0.883,0.403,0.705,0.671,�k��,1.2,��
2020/02/10,04:40,0.704,1.021,0.661,1.268,0.883,0.401,0.705,0.671,�k�k��,1.2,��
2020/02/10,04:50,0.704,1.023,0.659,1.267,0.881,0.402,0.705,0.671,�k�k��,1.7,��
2020/02/10,05:00,0.702,1.019,0.659,1.267,0.882,0.403,0.706,0.669,�k�k��,1.5,��
2020/02/10,05:10,0.704,1.022,0.661,1.266,0.882,0.400,0.707,0.670,�k�k��,2.1,��
2020/02/10,05:20,0.702,1.021,0.661,1.267,0.880,0.402,0.706,0.672,�k��,2.2,��
2020/02/10,05:30,0.703,1.023,0.659,1.265,0.882,0.402,0.705,0.671,�k�k��,2.4,��
2020/02/10,05:40,0.704,1.019,0.660,1.267,0.882,0.400,0.704,0.671,�k��,2.6,��
2020/02/10,05:50,0.703,1.021,0.660,1.267,0.882,0.400,0.706,0.671,�k��,2.2,��
2020/02/10,06:00,0.704,1.023,0.659,1.268,0.884,0.403,0.706,0.672,���k��,1.5,��
2020/02/10,06:10,0.703,1.024,0.661,1.266,0.885,0.401,0.705,0.670,��,2.2,��
2020/02/10,06:20,0.704,1.020,0.662,1.266,0.884,0.402,0.706,0.672,���k��,2.2,��
2020/02/10,06:30,0.704,1.021,0.659,1.268,0.883,0.401,0.707,0.670,�k��,2.5,��
2020/02/10,06:40,0.703,1.024,0.660,1.269,0.883,0.402,0.708,0.670,�k�k��,3.3,��
2020/02/10,06:50,0.704,1.021,0.659,1.266,0.884,0.402,0.706,0.671,�k��,2.4,��
2020/02/10,07:00,0.704,1.021,0.658,1.268,0.883,0.402,0.707,0.672,�k��,3.5,��
2020/02/10,07:10,0.705,1.022,0.661,1.267,0.883,0.401,0.706,0.670,�k�k��,3.9,��
2020/02/10,07:20,0.707,1.020,0.659,1.268,0.884,0.402,0.706,0.671,�k��,4.9,��
2020/02/10,07:30,0.705,1.022,0.660,1.267,0.885,0.401,0.706,0.671,�k��,6.3,��
2020/02/10,07:40,0.705,1.021,0.661,1.270,0.882,0.401,0.709,0.672,�k��,6.9,��
2020/02/10,07:50,0.706,1.022,0.661,1.268,0.883,0.402,0.707,0.671,�k��,6.7,��
2020/02/10,08:00,0.705,1.022,0.660,1.266,0.886,0.401,0.709,0.670,�k��,6.4,��
2020/02/10,08:10,0.704,1.021,0.660,1.269,0.884,0.402,0.707,0.672,�k��,7.4,��
2020/02/10,08:20,0.705,1.021,0.660,1.268,0.882,0.403,0.707,0.672,�k��,7.1,��
2020/02/10,08:30,0.707,1.023,0.659,1.269,0.884,0.402,0.708,0.672,�k��,7.2,��
2020/02/10,08:40,0.706,1.021,0.660,1.268,0.884,0.401,0.708,0.672,�k��,5.2,��
2020/02/10,08:50,0.705,1.018,0.656,1.268,0.881,0.401,0.707,0.672,�k�k��,3.8,��
2020/02/10,09:00,0.707,1.018,0.659,1.268,0.885,0.402,0.706,0.672,�k�k��,4.3,��
2020/02/10,09:10,0.706,1.019,0.658,1.270,0.885,0.403,0.706,0.671,�k,3.4,��
2020/02/10,09:20,0.702,1.018,0.660,1.267,0.884,0.402,0.707,0.670,�k�k��,2.2,��
2020/02/10,09:30,0.703,1.016,0.659,1.269,0.885,0.401,0.708,0.670,�k,2.0,��
2020/02/10,09:40,0.702,1.016,0.660,1.267,0.884,0.400,0.708,0.670,�k,2.6,��
2020/02/10,09:50,0.702,1.016,0.660,1.267,0.885,0.402,0.708,0.672,�k,2.2,��
2020/02/10,10:00,0.699,1.016,0.659,1.267,0.884,0.403,0.709,0.671,�k�k��,1.0,��
2020/02/10,10:10,0.694,1.019,0.659,1.266,0.887,0.402,0.709,0.670,�k�k��,1.7,��
2020/02/10,10:20,0.695,1.016,0.658,1.266,0.885,0.403,0.707,0.670,�k�k��,1.9,��
2020/02/10,10:30,0.688,1.019,0.657,1.266,0.886,0.401,0.707,0.671,�k,1.6,��
2020/02/10,10:40,0.693,1.019,0.657,1.267,0.886,0.403,0.709,0.671,�k��,1.3,��
2020/02/10,10:50,0.688,1.018,0.654,1.267,0.886,0.401,0.707,0.671,���쓌,0.8,��
2020/02/10,11:00,0.688,1.020,0.655,1.265,0.888,0.402,0.707,0.670,���k��,0.5,��
2020/02/10,11:10,0.693,1.021,0.654,1.268,0.887,0.401,0.708,0.671,���쓌,0.6,��
2020/02/10,11:20,0.696,1.019,0.654,1.268,0.886,0.402,0.709,0.672,��,1.1,��
2020/02/10,11:30,0.700,1.019,0.653,1.270,0.886,0.403,0.707,0.671,�쓌,1.2,��
2020/02/10,11:40,0.695,1.020,0.647,1.268,0.888,0.403,0.707,0.672,�쓌,1.5,��
2020/02/10,11:50,0.694,1.019,0.649,1.265,0.889,0.404,0.707,0.672,���쓌,2.4,��
2020/02/10,12:00,0.696,1.018,0.654,1.269,0.887,0.402,0.707,0.672,�쓌,2.3,��
2020/02/10,12:10,0.695,1.023,0.656,1.269,0.889,0.402,0.705,0.671,�쓌,2.2,��
2020/02/10,12:20,0.698,1.022,0.655,1.271,0.889,0.403,0.707,0.671,�쓌,2.4,��
2020/02/10,12:30,0.698,1.022,0.657,1.269,0.888,0.403,0.706,0.671,���쓌,3.4,��
2020/02/10,12:40,0.697,1.021,0.656,1.271,0.888,0.403,0.706,0.672,�쓌,3.8,��
2020/02/10,12:50,0.698,1.022,0.655,1.269,0.889,0.403,0.705,0.672,�쓌,3.9,��
2020/02/10,13:00,0.697,1.026,0.657,1.268,0.888,0.402,0.707,0.672,���쓌,3.5,��
2020/02/10,13:10,0.701,1.024,0.659,1.269,0.887,0.403,0.707,0.674,�쓌,3.1,��
2020/02/10,13:20,0.699,1.024,0.658,1.273,0.887,0.403,0.706,0.672,��쓌,3.3,��
2020/02/10,13:30,0.703,1.023,0.657,1.273,0.888,0.404,0.708,0.673,�쓌,3.4,��
2020/02/10,13:40,0.701,1.023,0.655,1.269,0.887,0.405,0.707,0.673,��쓌,4.6,��
2020/02/10,13:50,0.701,1.021,0.654,1.271,0.888,0.404,0.710,0.671,�쓌,3.4,��
2020/02/10,14:00,0.699,1.021,0.651,1.266,0.888,0.403,0.708,0.670,���쓌,3.6,��
2020/02/10,14:10,0.697,1.024,0.655,1.269,0.887,0.404,0.707,0.669,�쓌,4.6,��
2020/02/10,14:20,0.701,1.025,0.653,1.270,0.887,0.405,0.706,0.669,�쓌,3.2,��
2020/02/10,14:30,0.702,1.024,0.660,1.268,0.891,0.404,0.708,0.669,���쓌,2.9,��
2020/02/10,14:40,0.700,1.022,0.661,1.268,0.888,0.404,0.708,0.669,�쓌,2.5,��
2020/02/10,14:50,0.710,1.021,0.659,1.269,0.889,0.405,0.708,0.671,�쓌,1.9,��
2020/02/10,15:00,0.708,1.025,0.660,1.267,0.891,0.404,0.708,0.671,�쓌,3.1,��
2020/02/10,15:10,0.709,1.023,0.658,1.269,0.889,0.405,0.709,0.672,�쓌,3.8,��
2020/02/10,15:20,0.709,1.027,0.660,1.269,0.891,0.403,0.709,0.672,���쓌,3.1,��
2020/02/10,15:30,0.710,1.023,0.657,1.268,0.891,0.405,0.709,0.672,���쓌,3.3,��
2020/02/10,15:40,0.709,1.026,0.662,1.271,0.890,0.405,0.710,0.671,�쓌,2.9,��
2020/02/10,15:50,0.709,1.027,0.664,1.270,0.891,0.405,0.710,0.672,���쓌,3.2,�L
2020/02/10,16:00,0.710,1.026,0.662,1.269,0.889,0.405,0.708,0.673,���쓌,3.5,�L
2020/02/10,16:10,0.711,1.029,0.663,1.270,0.891,0.406,0.710,0.671,���쓌,4.6,�L
2020/02/10,16:20,0.710,1.028,0.663,1.272,0.890,0.404,0.709,0.673,���쓌,3.6,�L
2020/02/10,16:30,0.712,1.030,0.665,1.269,0.890,0.404,0.708,0.671,���쓌,2.6,��
2020/02/10,16:40,0.711,1.029,0.662,1.269,0.891,0.406,0.709,0.673,���쓌,1.9,��
2020/02/10,16:50,0.709,1.029,0.663,1.268,0.890,0.404,0.709,0.673,���쓌,3.6,��
2020/02/10,17:00,0.711,1.027,0.665,1.267,0.891,0.405,0.710,0.673,���쓌,2.8,��
2020/02/10,17:10,0.711,1.026,0.664,1.269,0.892,0.406,0.710,0.671,���쓌,2.9,��
2020/02/10,17:20,0.711,1.027,0.663,1.268,0.892,0.405,0.709,0.671,���쓌,3.5,��
2020/02/10,17:30,0.710,1.029,0.664,1.269,0.893,0.405,0.709,0.673,���쓌,3.8,��
2020/02/10,17:40,0.710,1.028,0.663,1.268,0.892,0.404,0.709,0.673,���쓌,3.3,��
2020/02/10,17:50,0.711,1.027,0.664,1.270,0.892,0.405,0.709,0.673,���쓌,2.7,��
2020/02/10,18:00,0.710,1.025,0.663,1.269,0.892,0.403,0.709,0.672,���쓌,3.0,��
2020/02/10,18:10,0.709,1.026,0.663,1.269,0.891,0.405,0.708,0.670,��,3.6,��
2020/02/10,18:20,0.711,1.025,0.662,1.269,0.890,0.404,0.709,0.672,��,2.6,�L
2020/02/10,18:30,0.710,1.028,0.662,1.269,0.889,0.404,0.709,0.671,��,2.0,�L
2020/02/10,18:40,0.708,1.026,0.664,1.268,0.892,0.403,0.709,0.673,�k�k��,1.9,�L
2020/02/10,18:50,0.710,1.028,0.664,1.268,0.893,0.406,0.709,0.673,�k��,5.2,�L
2020/02/10,19:00,0.707,1.020,0.663,1.269,0.890,0.404,0.708,0.671,�k��,4.3,�L
2020/02/10,19:10,0.704,1.013,0.659,1.266,0.885,0.407,0.706,0.671,���k��,2.9,�L
2020/02/10,19:20,0.697,1.002,0.655,1.259,0.877,0.404,0.703,0.667,�k��,3.6,�L
2020/02/10,19:30,0.697,0.999,0.655,1.255,0.874,0.408,0.704,0.670,�k�k��,3.6,�L
2020/02/10,19:40,0.696,0.997,0.655,1.256,0.874,0.403,0.703,0.669,�k,3.4,�L
2020/02/10,19:50,0.698,0.997,0.655,1.254,0.874,0.403,0.703,0.667,�k,3.6,�L
2020/02/10,20:00,0.696,1.001,0.656,1.254,0.875,0.402,0.703,0.668,�k,4.1,��
2020/02/10,20:10,0.695,0.998,0.655,1.253,0.874,0.402,0.705,0.668,�k,4.1,��
2020/02/10,20:20,0.695,1.000,0.653,1.249,0.872,0.402,0.703,0.668,�k,3.9,�L
2020/02/10,20:30,0.696,0.997,0.652,1.250,0.873,0.403,0.703,0.667,�k,3.8,�L
2020/02/10,20:40,0.694,0.996,0.654,1.252,0.873,0.404,0.702,0.668,�k,2.7,�L
2020/02/10,20:50,0.692,0.996,0.653,1.253,0.873,0.402,0.703,0.666,�k�k��,2.9,�L
2020/02/10,21:00,0.693,0.995,0.652,1.251,0.874,0.403,0.702,0.665,�k�k��,3.2,�L
2020/02/10,21:10,0.693,0.995,0.652,1.251,0.872,0.402,0.701,0.666,�k��,2.3,�L
2020/02/10,21:20,0.692,0.995,0.653,1.249,0.873,0.403,0.701,0.666,�k�k��,3.1,�L
2020/02/10,21:30,0.692,0.994,0.653,1.249,0.872,0.402,0.702,0.667,�k�k��,4.2,�L
2020/02/10,21:40,0.693,0.993,0.652,1.249,0.872,0.402,0.702,0.667,�k�k��,6.7,�L
2020/02/10,21:50,0.691,0.994,0.654,1.251,0.870,0.401,0.702,0.667,�k�k��,7.4,�L
2020/02/10,22:00,0.689,0.991,0.651,1.247,0.871,0.402,0.701,0.666,�k�k��,7.4,�L
2020/02/10,22:10,0.688,0.987,0.649,1.247,0.869,0.400,0.701,0.665,�k�k��,8.2,�L
2020/02/10,22:20,0.689,0.984,0.647,1.244,0.866,0.400,0.701,0.666,�k�k��,8.8,�L
2020/02/10,22:30,0.688,0.984,0.647,1.240,0.864,0.399,0.700,0.665,�k�k��,8.5,�L
2020/02/10,22:40,0.685,0.981,0.645,1.240,0.862,0.399,0.698,0.663,�k�k��,9.4,�L
2020/02/10,22:50,0.684,0.980,0.645,1.239,0.863,0.399,0.697,0.663,�k�k��,9.1,�L
2020/02/10,23:00,0.685,0.979,0.644,1.238,0.860,0.398,0.696,0.664,�k��,9.4,��
2020/02/10,23:10,0.683,0.978,0.645,1.236,0.859,0.398,0.696,0.666,�k�k��,8.2,��
2020/02/10,23:20,0.682,0.980,0.644,1.236,0.861,0.396,0.696,0.663,�k�k��,9.3,��
2020/02/10,23:30,0.683,0.978,0.644,1.237,0.861,0.396,0.697,0.665,�k�k��,8.0,��
2020/02/10,23:40,0.684,0.978,0.642,1.237,0.859,0.397,0.697,0.664,�k�k��,8.2,��
2020/02/10,23:50,0.683,0.978,0.641,1.237,0.862,0.395,0.697,0.662,�k��,5.8,��
